Tracking 30995 objects as of 5-Jul-2025
HD Live streaming from Space Station
objects crossing your sky now

PSLV R/B

Track PSLV R/B now!
10-day predictions


NORAD ID: 41242
Int'l Code: 2016-003B
Perigee: 334.1 km
Apogee: 20,341.0 km
Inclination: 19.1 °
Period: 358.2 minutes
Semi major axis: 16708 km
RCS: Unknown
Launch date: January 20, 2016
Source: India (IND)
Launch site: SRIHARIKOTA (SRI)

Note: This is a ROCKET BODY
Your satellite tracking list
Your tracking list is empty




NASA's NSSDC Master Catalog

Two Line Element Set (TLE):
1 41242U 16003B   25186.43605263  .00000856  00000-0  33568-3 0  9991
2 41242  19.1224 347.9834 5987010 359.0090   0.1513  4.01971269136748
Source of the keplerian elements: AFSPC